This demonstration page uses our WeatherBlox Daily Observations layout. Learn more.

Left ArrowRight Arrow

34.74481, -87.66753

Hourly Observations for July 6, 2019

Temp ( °F °C ) Dew Point ( °F °C ) Humidity (%) Winds ( mph kmh ) Pressure ( in mb ) Visibility ( mi km ) Precip ( " mm )
12:53 am 00:53 Clear 76 24.4 72 22.2 88 88 Calm 30.03 1017 10 16 0.00 0.00
1:53 am 01:53 Clear 75 23.9 72 22.2 90 90 Calm 30.02 1017 10 16 0.00 0.00
2:53 am 02:53 Clear 74 23.3 71 21.7 91 91 Calm 30.00 1016 10 16 0.00 0.00
3:53 am 03:53 Clear 73 22.8 71 21.7 94 94 N 3 6 30.02 1017 10 16 0.00 0.00
4:53 am 04:53 Mostly Clear 74 23.3 71 21.7 91 91 Calm 30.04 1017 10 16 0.00 0.00
5:53 am 05:53 Sunny 73 22.8 70 21.1 90 90 Calm 30.06 1018 10 16 0.00 0.00
6:53 am 06:53 Sunny 75 23.9 73 22.8 94 94 Calm 30.08 1019 10 16 0.00 0.00
7:53 am 07:53 Sunny 80 26.7 73 22.8 79 79 Calm 30.08 1019 10 16 0.00 0.00
8:53 am 08:53 Mostly Sunny 86 30 73 22.8 65 65 W 6 9 30.08 1019 10 16 0.00 0.00
9:53 am 09:53 Sunny 88 31.1 73 22.8 61 61 W 6 9 30.05 1018 10 16 0.00 0.00
10:53 am 10:53 Mostly Cloudy 92 33.3 72 22.2 52 52 WNW 6 9 30.04 1017 10 16 0.00 0.00
11:53 am 11:53 Partly Cloudy 92 33.3 70 21.1 49 49 Calm 30.03 1017 10 16 0.00 0.00
12:53 pm 12:53 Mostly Cloudy 93 33.9 68 20 44 44 W 9 15 30.01 1016 10 16 0.00 0.00
1:53 pm 13:53 Mostly Sunny 94 34.4 68 20 43 43 S 8 13 29.98 1015 10 16 0.00 0.00
2:02 pm 14:02 Partly Cloudy with Nearby Thunderstorms 94 34.4 68 20 43 43 SSW 13 20 29.96 1015 10 16 0.00 0.00
2:17 pm 14:17 Mostly Cloudy 94 34.4 67 19.4 41 41 SSW 10 17 29.95 1014 10 16 0.00 0.00
2:34 pm 14:34 Cloudy with Nearby Thunderstorms 94 34.4 68 20 43 43 WSW 14 22 29.95 1014 10 16 0.00 0.00
2:53 pm 14:53 Cloudy 89 31.7 71 21.7 55 55 NW 16 26 29.97 1015 10 16 0.00 0.00
3:04 pm 15:04 Mostly Cloudy with Nearby Thunderstorms 91 32.8 71 21.7 52 52 NNW 9 15 29.95 1014 10 16 0.00 0.00
3:37 pm 15:37 Mostly Cloudy 88 31.1 73 22.8 61 61 NNW 8 13 29.96 1014 10 16 0.00 0.00
3:53 pm 15:53 Partly Cloudy 86 30 72 22.2 63 63 N 3 6 29.96 1015 10 16 0.00 0.00
4:38 pm 16:38 Partly Cloudy with Nearby Thunderstorms 88 31.1 74 23.3 63 63 N 8 13 29.93 1013 10 16 0.00 0.00
4:53 pm 16:53 Mostly Cloudy with Thunderstorms 86 30 74 23.3 67 67 NW 10 17 29.96 1015 10 16 0.00 0.00
5:16 pm 17:16 Cloudy with Strong Thunderstorms 75 23.9 72 22.2 90 90 WSW 8 13 29.98 1015 10 16 0.29 7.37
5:28 pm 17:28 Cloudy with Thunderstorms 76 24.4 73 22.8 91 91 SE 7 11 29.97 1015 10 16 0.37 9.40
6:06 pm 18:06 Partly Cloudy 78 25.6 72 22.2 82 82 Calm 29.95 1014 10 16 0.00 0.03
6:53 pm 18:53 Sunny 80 26.7 73 22.8 79 79 SW 5 7 29.95 1014 10 16 0.00 0.03
7:53 pm 19:53 Sunny 80 26.7 74 23.3 82 82 Calm 29.95 1014 10 16 0.00 0.00
8:53 pm 20:53 Mostly Clear 78 25.6 75 23.9 90 90 Calm 29.97 1015 10 16 0.00 0.00
9:53 pm 21:53 Mostly Clear 78 25.6 75 23.9 90 90 Calm 29.98 1015 10 16 0.00 0.00
10:53 pm 22:53 Partly Cloudy 78 25.6 75 23.9 90 90 NW 3 6 29.98 1015 10 16 0.00 0.00
11:53 pm 23:53 Clear 78 25.6 75 23.9 90 90 Calm 29.97 1015 10 16 0.00 0.00

Powered by AerisWeather